#datetime,building,power
2023-12-24T00:00:00,mnr,5.56
2023-12-24T00:01:00,mnr,5.21
2023-12-24T00:02:00,mnr,4.49
2023-12-24T00:03:00,mnr,4.50
2023-12-24T00:04:00,mnr,4.96
2023-12-24T00:05:00,mnr,4.50
2023-12-24T00:06:00,mnr,4.88
2023-12-24T00:07:00,mnr,4.94
2023-12-24T00:08:00,mnr,5.73
2023-12-24T00:09:00,mnr,4.44
2023-12-24T00:10:00,mnr,5.33
2023-12-24T00:11:00,mnr,4.43
2023-12-24T00:12:00,mnr,4.70
2023-12-24T00:13:00,mnr,4.84
2023-12-24T00:14:00,mnr,4.87
2023-12-24T00:15:00,mnr,5.10
2023-12-24T00:16:00,mnr,4.88
2023-12-24T00:17:00,mnr,4.89
2023-12-24T00:18:00,mnr,4.76
2023-12-24T00:19:00,mnr,4.75
2023-12-24T00:20:00,mnr,4.91
2023-12-24T00:21:00,mnr,4.73
2023-12-24T00:22:00,mnr,4.73
2023-12-24T00:23:00,mnr,5.47
2023-12-24T00:24:00,mnr,4.63
2023-12-24T00:25:00,mnr,4.63
2023-12-24T00:26:00,mnr,4.64
2023-12-24T00:27:00,mnr,4.64
2023-12-24T00:28:00,mnr,4.65
2023-12-24T00:29:00,mnr,4.68
2023-12-24T00:30:00,mnr,4.63
2023-12-24T00:31:00,mnr,4.61
2023-12-24T00:32:00,mnr,4.61
2023-12-24T00:33:00,mnr,4.62
2023-12-24T00:34:00,mnr,5.19
2023-12-24T00:35:00,mnr,4.56
2023-12-24T00:36:00,mnr,5.13
2023-12-24T00:37:00,mnr,4.62
2023-12-24T00:38:00,mnr,5.24
2023-12-24T00:39:00,mnr,4.48
2023-12-24T00:40:00,mnr,5.00
2023-12-24T00:41:00,mnr,4.40
2023-12-24T00:42:00,mnr,4.53
2023-12-24T00:43:00,mnr,4.50
2023-12-24T00:44:00,mnr,4.73
2023-12-24T00:45:00,mnr,4.66
2023-12-24T00:46:00,mnr,4.63
2023-12-24T00:47:00,mnr,4.60
2023-12-24T00:48:00,mnr,4.93
2023-12-24T00:49:00,mnr,4.70
2023-12-24T00:50:00,mnr,4.63
2023-12-24T00:51:00,mnr,4.82
2023-12-24T00:52:00,mnr,5.71
2023-12-24T00:53:00,mnr,4.59
2023-12-24T00:54:00,mnr,4.59
2023-12-24T00:55:00,mnr,4.64
2023-12-24T00:56:00,mnr,4.58
2023-12-24T00:57:00,mnr,5.06
2023-12-24T00:58:00,mnr,4.58
2023-12-24T00:59:00,mnr,4.59
2023-12-24T01:00:00,mnr,4.56
2023-12-24T01:01:00,mnr,4.60
2023-12-24T01:02:00,mnr,5.23
2023-12-24T01:03:00,mnr,4.56
2023-12-24T01:04:00,mnr,4.54
2023-12-24T01:05:00,mnr,4.55
2023-12-24T01:06:00,mnr,4.61
2023-12-24T01:07:00,mnr,4.59
2023-12-24T01:08:00,mnr,4.64
2023-12-24T01:09:00,mnr,4.45
2023-12-24T01:10:00,mnr,5.69
2023-12-24T01:11:00,mnr,4.51
2023-12-24T01:12:00,mnr,4.52
2023-12-24T01:13:00,mnr,4.74
2023-12-24T01:14:00,mnr,4.12
2023-12-24T01:15:00,mnr,4.15
2023-12-24T01:16:00,mnr,4.14
2023-12-24T01:17:00,mnr,4.21
2023-12-24T01:18:00,mnr,4.24
2023-12-24T01:19:00,mnr,4.22
2023-12-24T01:20:00,mnr,4.80
2023-12-24T01:21:00,mnr,4.25
2023-12-24T01:22:00,mnr,4.63
2023-12-24T01:23:00,mnr,4.88
2023-12-24T01:24:00,mnr,4.24
2023-12-24T01:25:00,mnr,4.56
2023-12-24T01:26:00,mnr,4.23
2023-12-24T01:27:00,mnr,4.64
2023-12-24T01:28:00,mnr,4.31
2023-12-24T01:29:00,mnr,4.29
2023-12-24T01:30:00,mnr,4.20
2023-12-24T01:31:00,mnr,4.16
2023-12-24T01:32:00,mnr,4.43
2023-12-24T01:33:00,mnr,4.17
2023-12-24T01:34:00,mnr,4.19
2023-12-24T01:35:00,mnr,4.74
2023-12-24T01:36:00,mnr,4.18
2023-12-24T01:37:00,mnr,5.09
2023-12-24T01:38:00,mnr,4.16
2023-12-24T01:39:00,mnr,4.18
2023-12-24T01:40:00,mnr,4.63
2023-12-24T01:41:00,mnr,4.31
2023-12-24T01:42:00,mnr,4.24
2023-12-24T01:43:00,mnr,4.17
2023-12-24T01:44:00,mnr,4.15
2023-12-24T01:45:00,mnr,4.11
2023-12-24T01:46:00,mnr,4.78
2023-12-24T01:47:00,mnr,4.28
2023-12-24T01:48:00,mnr,5.11
2023-12-24T01:49:00,mnr,4.24
2023-12-24T01:50:00,mnr,4.47
2023-12-24T01:51:00,mnr,4.28
2023-12-24T01:52:00,mnr,4.58
2023-12-24T01:53:00,mnr,4.21
2023-12-24T01:54:00,mnr,4.65
2023-12-24T01:55:00,mnr,4.55
2023-12-24T01:56:00,mnr,4.59
2023-12-24T01:57:00,mnr,4.70
2023-12-24T01:58:00,mnr,4.70
2023-12-24T01:59:00,mnr,4.93
2023-12-24T02:00:00,mnr,4.72
2023-12-24T02:01:00,mnr,4.72
2023-12-24T02:02:00,mnr,4.68
2023-12-24T02:03:00,mnr,4.68
2023-12-24T02:04:00,mnr,4.73
2023-12-24T02:05:00,mnr,4.68
2023-12-24T02:06:00,mnr,4.70
2023-12-24T02:07:00,mnr,4.68
2023-12-24T02:08:00,mnr,4.67
2023-12-24T02:09:00,mnr,5.14
2023-12-24T02:10:00,mnr,4.68
2023-12-24T02:11:00,mnr,4.63
2023-12-24T02:12:00,mnr,4.66
2023-12-24T02:13:00,mnr,4.76
2023-12-24T02:14:00,mnr,4.69
2023-12-24T02:15:00,mnr,5.14
2023-12-24T02:16:00,mnr,6.01
2023-12-24T02:17:00,mnr,4.62
2023-12-24T02:18:00,mnr,4.73
2023-12-24T02:19:00,mnr,5.22
2023-12-24T02:20:00,mnr,5.09
2023-12-24T02:21:00,mnr,5.04
2023-12-24T02:22:00,mnr,4.68
2023-12-24T02:23:00,mnr,5.22
2023-12-24T02:24:00,mnr,4.68
2023-12-24T02:25:00,mnr,4.72
2023-12-24T02:26:00,mnr,4.70
2023-12-24T02:27:00,mnr,4.72
2023-12-24T02:28:00,mnr,4.67
2023-12-24T02:29:00,mnr,4.71
2023-12-24T02:30:00,mnr,4.62
2023-12-24T02:31:00,mnr,4.64
2023-12-24T02:32:00,mnr,4.65
2023-12-24T02:33:00,mnr,4.64
2023-12-24T02:34:00,mnr,5.19
2023-12-24T02:35:00,mnr,4.65
2023-12-24T02:36:00,mnr,4.68
2023-12-24T02:37:00,mnr,4.61
2023-12-24T02:38:00,mnr,4.59
2023-12-24T02:39:00,mnr,4.88
2023-12-24T02:40:00,mnr,4.57
2023-12-24T02:41:00,mnr,4.57
2023-12-24T02:42:00,mnr,4.67
2023-12-24T02:43:00,mnr,4.56
2023-12-24T02:44:00,mnr,4.54
2023-12-24T02:45:00,mnr,4.54
2023-12-24T02:46:00,mnr,4.67
2023-12-24T02:47:00,mnr,5.08
2023-12-24T02:48:00,mnr,4.70
2023-12-24T02:49:00,mnr,4.64
2023-12-24T02:50:00,mnr,4.79
2023-12-24T02:51:00,mnr,4.70
2023-12-24T02:52:00,mnr,4.77
2023-12-24T02:53:00,mnr,4.71
2023-12-24T02:54:00,mnr,4.76
2023-12-24T02:55:00,mnr,4.29
2023-12-24T02:56:00,mnr,4.93
2023-12-24T02:57:00,mnr,4.25
2023-12-24T02:58:00,mnr,4.37
2023-12-24T02:59:00,mnr,4.14
2023-12-24T03:00:00,mnr,4.05
2023-12-24T03:01:00,mnr,4.08
2023-12-24T03:02:00,mnr,4.11
2023-12-24T03:03:00,mnr,4.13
2023-12-24T03:04:00,mnr,3.99
2023-12-24T03:05:00,mnr,4.03
2023-12-24T03:06:00,mnr,4.06
2023-12-24T03:07:00,mnr,4.65
2023-12-24T03:08:00,mnr,4.04
2023-12-24T03:09:00,mnr,4.65
2023-12-24T03:10:00,mnr,4.02
2023-12-24T03:11:00,mnr,4.05
2023-12-24T03:12:00,mnr,4.03
2023-12-24T03:13:00,mnr,4.01
2023-12-24T03:14:00,mnr,4.09
2023-12-24T03:15:00,mnr,4.10
2023-12-24T03:16:00,mnr,4.76
2023-12-24T03:17:00,mnr,4.07
2023-12-24T03:18:00,mnr,5.36
2023-12-24T03:19:00,mnr,4.21
2023-12-24T03:20:00,mnr,4.67
2023-12-24T03:21:00,mnr,4.08
2023-12-24T03:22:00,mnr,4.11
2023-12-24T03:23:00,mnr,4.08
2023-12-24T03:24:00,mnr,5.00
2023-12-24T03:25:00,mnr,4.20
2023-12-24T03:26:00,mnr,4.21
2023-12-24T03:27:00,mnr,4.32
2023-12-24T03:28:00,mnr,4.13
2023-12-24T03:29:00,mnr,4.10
2023-12-24T03:30:00,mnr,4.77
2023-12-24T03:31:00,mnr,4.20
2023-12-24T03:32:00,mnr,4.08
2023-12-24T03:33:00,mnr,4.04
2023-12-24T03:34:00,mnr,4.82
2023-12-24T03:35:00,mnr,4.12
2023-12-24T03:36:00,mnr,4.59
2023-12-24T03:37:00,mnr,4.60
2023-12-24T03:38:00,mnr,4.53
2023-12-24T03:39:00,mnr,5.25
2023-12-24T03:40:00,mnr,4.69
2023-12-24T03:41:00,mnr,4.71
2023-12-24T03:42:00,mnr,4.86
2023-12-24T03:43:00,mnr,4.71
2023-12-24T03:44:00,mnr,4.71
2023-12-24T03:45:00,mnr,4.63
2023-12-24T03:46:00,mnr,5.51
2023-12-24T03:47:00,mnr,4.70
2023-12-24T03:48:00,mnr,4.69
2023-12-24T03:49:00,mnr,4.77
2023-12-24T03:50:00,mnr,4.88
2023-12-24T03:51:00,mnr,4.63
2023-12-24T03:52:00,mnr,4.63
2023-12-24T03:53:00,mnr,5.49
2023-12-24T03:54:00,mnr,4.59
2023-12-24T03:55:00,mnr,4.63
2023-12-24T03:56:00,mnr,4.66
2023-12-24T03:57:00,mnr,5.28
2023-12-24T03:58:00,mnr,4.61
2023-12-24T03:59:00,mnr,4.69
2023-12-24T04:00:00,mnr,4.74
2023-12-24T04:01:00,mnr,4.71
2023-12-24T04:02:00,mnr,5.17
2023-12-24T04:03:00,mnr,5.21
2023-12-24T04:04:00,mnr,4.82
2023-12-24T04:05:00,mnr,5.02
2023-12-24T04:06:00,mnr,4.72
2023-12-24T04:07:00,mnr,4.70
2023-12-24T04:08:00,mnr,4.72
2023-12-24T04:09:00,mnr,4.80
2023-12-24T04:10:00,mnr,4.82
2023-12-24T04:11:00,mnr,4.78
2023-12-24T04:12:00,mnr,4.84
2023-12-24T04:13:00,mnr,4.83
2023-12-24T04:14:00,mnr,5.66
2023-12-24T04:15:00,mnr,4.75
2023-12-24T04:16:00,mnr,5.99
2023-12-24T04:17:00,mnr,4.92
2023-12-24T04:18:00,mnr,4.83
2023-12-24T04:19:00,mnr,4.76
2023-12-24T04:20:00,mnr,4.79
2023-12-24T04:21:00,mnr,5.13
2023-12-24T04:22:00,mnr,4.72
2023-12-24T04:23:00,mnr,4.65
2023-12-24T04:24:00,mnr,4.73
2023-12-24T04:25:00,mnr,4.72
2023-12-24T04:26:00,mnr,4.67
2023-12-24T04:27:00,mnr,4.77
2023-12-24T04:28:00,mnr,4.65
2023-12-24T04:29:00,mnr,4.62
2023-12-24T04:30:00,mnr,4.62
2023-12-24T04:31:00,mnr,4.58
2023-12-24T04:32:00,mnr,4.57
2023-12-24T04:33:00,mnr,4.61
2023-12-24T04:34:00,mnr,4.61
2023-12-24T04:35:00,mnr,4.56
2023-12-24T04:36:00,mnr,4.59
2023-12-24T04:37:00,mnr,4.16
2023-12-24T04:38:00,mnr,4.96
2023-12-24T04:39:00,mnr,4.08
2023-12-24T04:40:00,mnr,4.01
2023-12-24T04:41:00,mnr,4.05
2023-12-24T04:42:00,mnr,5.07
2023-12-24T04:43:00,mnr,4.14
2023-12-24T04:44:00,mnr,4.65
2023-12-24T04:45:00,mnr,4.85
2023-12-24T04:46:00,mnr,4.12
2023-12-24T04:47:00,mnr,4.78
2023-12-24T04:48:00,mnr,4.48
2023-12-24T04:49:00,mnr,4.09
2023-12-24T04:50:00,mnr,3.98
2023-12-24T04:51:00,mnr,3.98
2023-12-24T04:52:00,mnr,4.05
2023-12-24T04:53:00,mnr,5.17
2023-12-24T04:54:00,mnr,4.03
2023-12-24T04:55:00,mnr,4.01
2023-12-24T04:56:00,mnr,4.02
2023-12-24T04:57:00,mnr,4.05
2023-12-24T04:58:00,mnr,4.02
2023-12-24T04:59:00,mnr,4.01
2023-12-24T05:00:00,mnr,4.42
2023-12-24T05:01:00,mnr,4.06
2023-12-24T05:02:00,mnr,4.33
2023-12-24T05:03:00,mnr,4.33
2023-12-24T05:04:00,mnr,4.96
2023-12-24T05:05:00,mnr,4.07
2023-12-24T05:06:00,mnr,4.12
2023-12-24T05:07:00,mnr,4.17
2023-12-24T05:08:00,mnr,4.18
2023-12-24T05:09:00,mnr,4.19
2023-12-24T05:10:00,mnr,4.15
2023-12-24T05:11:00,mnr,4.13
2023-12-24T05:12:00,mnr,4.18
2023-12-24T05:13:00,mnr,4.84
2023-12-24T05:14:00,mnr,4.15
2023-12-24T05:15:00,mnr,4.18
2023-12-24T05:16:00,mnr,4.16
2023-12-24T05:17:00,mnr,4.11
2023-12-24T05:18:00,mnr,5.42
2023-12-24T05:19:00,mnr,5.47
2023-12-24T05:20:00,mnr,4.69
2023-12-24T05:21:00,mnr,4.93
2023-12-24T05:22:00,mnr,4.67
2023-12-24T05:23:00,mnr,4.67
2023-12-24T05:24:00,mnr,4.68
2023-12-24T05:25:00,mnr,4.72
2023-12-24T05:26:00,mnr,4.62
2023-12-24T05:27:00,mnr,4.62
2023-12-24T05:28:00,mnr,5.21
2023-12-24T05:29:00,mnr,4.69
2023-12-24T05:30:00,mnr,4.68
2023-12-24T05:31:00,mnr,4.69
2023-12-24T05:32:00,mnr,4.64
2023-12-24T05:33:00,mnr,5.74
2023-12-24T05:34:00,mnr,5.01
2023-12-24T05:35:00,mnr,4.61
2023-12-24T05:36:00,mnr,5.90
2023-12-24T05:37:00,mnr,4.69
2023-12-24T05:38:00,mnr,4.64
2023-12-24T05:39:00,mnr,5.04
2023-12-24T05:40:00,mnr,4.65
2023-12-24T05:41:00,mnr,4.71
2023-12-24T05:42:00,mnr,4.74
2023-12-24T05:43:00,mnr,4.71
2023-12-24T05:44:00,mnr,5.43
2023-12-24T05:45:00,mnr,4.77
2023-12-24T05:46:00,mnr,6.15
2023-12-24T05:47:00,mnr,5.74
2023-12-24T05:48:00,mnr,4.66
2023-12-24T05:49:00,mnr,4.68
2023-12-24T05:50:00,mnr,4.63
2023-12-24T05:51:00,mnr,4.74
2023-12-24T05:52:00,mnr,4.62
2023-12-24T05:53:00,mnr,4.59
2023-12-24T05:54:00,mnr,4.55
2023-12-24T05:55:00,mnr,4.60
2023-12-24T05:56:00,mnr,4.60
2023-12-24T05:57:00,mnr,4.56
2023-12-24T05:58:00,mnr,4.63
2023-12-24T05:59:00,mnr,4.54
2023-12-24T06:00:00,mnr,4.49
2023-12-24T06:01:00,mnr,4.78
2023-12-24T06:02:00,mnr,7.26
2023-12-24T06:03:00,mnr,6.89
2023-12-24T06:04:00,mnr,8.40
2023-12-24T06:05:00,mnr,8.66
2023-12-24T06:06:00,mnr,10.41
2023-12-24T06:07:00,mnr,9.37
2023-12-24T06:08:00,mnr,9.32
2023-12-24T06:09:00,mnr,9.79
2023-12-24T06:10:00,mnr,9.09
2023-12-24T06:11:00,mnr,9.97
2023-12-24T06:12:00,mnr,9.05
2023-12-24T06:13:00,mnr,9.10
2023-12-24T06:14:00,mnr,9.27
2023-12-24T06:15:00,mnr,9.14
2023-12-24T06:16:00,mnr,9.02
2023-12-24T06:17:00,mnr,9.70
2023-12-24T06:18:00,mnr,8.97
2023-12-24T06:19:00,mnr,8.56
2023-12-24T06:20:00,mnr,8.56
2023-12-24T06:21:00,mnr,8.59
2023-12-24T06:22:00,mnr,8.47
2023-12-24T06:23:00,mnr,8.45
2023-12-24T06:24:00,mnr,8.35
2023-12-24T06:25:00,mnr,8.32
2023-12-24T06:26:00,mnr,8.37
2023-12-24T06:27:00,mnr,9.00
2023-12-24T06:28:00,mnr,8.32
2023-12-24T06:29:00,mnr,8.31
2023-12-24T06:30:00,mnr,8.39
2023-12-24T06:31:00,mnr,8.26
2023-12-24T06:32:00,mnr,8.30
2023-12-24T06:33:00,mnr,9.23
2023-12-24T06:34:00,mnr,8.41
2023-12-24T06:35:00,mnr,8.41
2023-12-24T06:36:00,mnr,8.40
2023-12-24T06:37:00,mnr,8.46
2023-12-24T06:38:00,mnr,8.43
2023-12-24T06:39:00,mnr,8.81
2023-12-24T06:40:00,mnr,8.38
2023-12-24T06:41:00,mnr,8.49
2023-12-24T06:42:00,mnr,8.45
2023-12-24T06:43:00,mnr,8.43
2023-12-24T06:44:00,mnr,8.55
2023-12-24T06:45:00,mnr,8.31
2023-12-24T06:46:00,mnr,8.30
2023-12-24T06:47:00,mnr,8.33
2023-12-24T06:48:00,mnr,8.26
2023-12-24T06:49:00,mnr,8.31
2023-12-24T06:50:00,mnr,8.39
2023-12-24T06:51:00,mnr,8.62
2023-12-24T06:52:00,mnr,8.48
2023-12-24T06:53:00,mnr,8.38
2023-12-24T06:54:00,mnr,8.44
2023-12-24T06:55:00,mnr,8.48
2023-12-24T06:56:00,mnr,8.37
2023-12-24T06:57:00,mnr,8.57
2023-12-24T06:58:00,mnr,9.02
2023-12-24T06:59:00,mnr,8.36
2023-12-24T07:00:00,mnr,9.42
2023-12-24T07:01:00,mnr,8.70
2023-12-24T07:02:00,mnr,9.38
2023-12-24T07:03:00,mnr,8.86
2023-12-24T07:04:00,mnr,8.81
2023-12-24T07:05:00,mnr,8.80
2023-12-24T07:06:00,mnr,9.01
2023-12-24T07:07:00,mnr,8.81
2023-12-24T07:08:00,mnr,8.90
2023-12-24T07:09:00,mnr,8.90
2023-12-24T07:10:00,mnr,8.90
2023-12-24T07:11:00,mnr,8.92
2023-12-24T07:12:00,mnr,8.92
2023-12-24T07:13:00,mnr,8.97
2023-12-24T07:14:00,mnr,8.94
2023-12-24T07:15:00,mnr,8.80
2023-12-24T07:16:00,mnr,8.81
2023-12-24T07:17:00,mnr,9.48
2023-12-24T07:18:00,mnr,9.43
2023-12-24T07:19:00,mnr,10.30
2023-12-24T07:20:00,mnr,8.57
2023-12-24T07:21:00,mnr,9.11
2023-12-24T07:22:00,mnr,8.55
2023-12-24T07:23:00,mnr,8.59
2023-12-24T07:24:00,mnr,8.60
2023-12-24T07:25:00,mnr,8.61
2023-12-24T07:26:00,mnr,8.56
2023-12-24T07:27:00,mnr,8.67
2023-12-24T07:28:00,mnr,8.91
2023-12-24T07:29:00,mnr,8.58
2023-12-24T07:30:00,mnr,8.60
2023-12-24T07:31:00,mnr,8.52
2023-12-24T07:32:00,mnr,8.68
2023-12-24T07:33:00,mnr,8.75
2023-12-24T07:34:00,mnr,8.61
2023-12-24T07:35:00,mnr,9.06
2023-12-24T07:36:00,mnr,9.07
2023-12-24T07:37:00,mnr,9.01
2023-12-24T07:38:00,mnr,8.99
2023-12-24T07:39:00,mnr,8.97
2023-12-24T07:40:00,mnr,8.93
2023-12-24T07:41:00,mnr,8.85
2023-12-24T07:42:00,mnr,8.88
2023-12-24T07:43:00,mnr,8.96
2023-12-24T07:44:00,mnr,9.07
2023-12-24T07:45:00,mnr,9.03
2023-12-24T07:46:00,mnr,9.55
2023-12-24T07:47:00,mnr,9.02
2023-12-24T07:48:00,mnr,9.10
2023-12-24T07:49:00,mnr,9.00
2023-12-24T07:50:00,mnr,9.59
2023-12-24T07:51:00,mnr,9.07
2023-12-24T07:52:00,mnr,9.19
2023-12-24T07:53:00,mnr,10.12
2023-12-24T07:54:00,mnr,10.26
2023-12-24T07:55:00,mnr,8.89
2023-12-24T07:56:00,mnr,8.99
2023-12-24T07:57:00,mnr,8.43
2023-12-24T07:58:00,mnr,8.47
2023-12-24T07:59:00,mnr,9.14
2023-12-24T08:00:00,mnr,8.02
2023-12-24T08:01:00,mnr,8.20
2023-12-24T08:02:00,mnr,8.07
2023-12-24T08:03:00,mnr,7.97
2023-12-24T08:04:00,mnr,8.10
2023-12-24T08:05:00,mnr,8.03
2023-12-24T08:06:00,mnr,8.17
2023-12-24T08:07:00,mnr,8.00
2023-12-24T08:08:00,mnr,8.09
2023-12-24T08:09:00,mnr,8.06
2023-12-24T08:10:00,mnr,7.98
2023-12-24T08:11:00,mnr,8.50
2023-12-24T08:12:00,mnr,7.99
2023-12-24T08:13:00,mnr,7.98
2023-12-24T08:14:00,mnr,8.13
2023-12-24T08:15:00,mnr,8.10
2023-12-24T08:16:00,mnr,8.06
2023-12-24T08:17:00,mnr,8.49
2023-12-24T08:18:00,mnr,8.09
2023-12-24T08:19:00,mnr,8.63
2023-12-24T08:20:00,mnr,8.05
2023-12-24T08:21:00,mnr,8.05
2023-12-24T08:22:00,mnr,8.08
2023-12-24T08:23:00,mnr,8.57
2023-12-24T08:24:00,mnr,8.18
2023-12-24T08:25:00,mnr,8.90
2023-12-24T08:26:00,mnr,8.12
2023-12-24T08:27:00,mnr,8.14
2023-12-24T08:28:00,mnr,8.12
2023-12-24T08:29:00,mnr,8.98
2023-12-24T08:30:00,mnr,7.98
2023-12-24T08:31:00,mnr,7.95
2023-12-24T08:32:00,mnr,8.79
2023-12-24T08:33:00,mnr,7.91
2023-12-24T08:34:00,mnr,7.77
2023-12-24T08:35:00,mnr,8.27
2023-12-24T08:36:00,mnr,8.37
2023-12-24T08:37:00,mnr,8.09
2023-12-24T08:38:00,mnr,7.97
2023-12-24T08:39:00,mnr,7.97
2023-12-24T08:40:00,mnr,7.96
2023-12-24T08:41:00,mnr,8.26
2023-12-24T08:42:00,mnr,8.35
2023-12-24T08:43:00,mnr,8.38
2023-12-24T08:44:00,mnr,9.47
2023-12-24T08:45:00,mnr,8.49
2023-12-24T08:46:00,mnr,8.54
2023-12-24T08:47:00,mnr,9.18
2023-12-24T08:48:00,mnr,8.58
2023-12-24T08:49:00,mnr,8.59
2023-12-24T08:50:00,mnr,8.52
2023-12-24T08:51:00,mnr,8.55
2023-12-24T08:52:00,mnr,8.57
2023-12-24T08:53:00,mnr,8.45
2023-12-24T08:54:00,mnr,9.58
2023-12-24T08:55:00,mnr,8.45
2023-12-24T08:56:00,mnr,8.51
2023-12-24T08:57:00,mnr,8.53
2023-12-24T08:58:00,mnr,8.41
2023-12-24T08:59:00,mnr,8.44
2023-12-24T09:00:00,mnr,8.41
2023-12-24T09:01:00,mnr,9.01
2023-12-24T09:02:00,mnr,8.48
2023-12-24T09:03:00,mnr,9.20
2023-12-24T09:04:00,mnr,8.43
2023-12-24T09:05:00,mnr,8.44
2023-12-24T09:06:00,mnr,8.42
2023-12-24T09:07:00,mnr,8.35
2023-12-24T09:08:00,mnr,8.34
2023-12-24T09:09:00,mnr,8.38
2023-12-24T09:10:00,mnr,8.35
2023-12-24T09:11:00,mnr,8.33
2023-12-24T09:12:00,mnr,8.30
2023-12-24T09:13:00,mnr,8.90
2023-12-24T09:14:00,mnr,8.25
2023-12-24T09:15:00,mnr,8.51
2023-12-24T09:16:00,mnr,8.56
2023-12-24T09:17:00,mnr,8.45
2023-12-24T09:18:00,mnr,8.48
2023-12-24T09:19:00,mnr,9.08
2023-12-24T09:20:00,mnr,8.45
2023-12-24T09:21:00,mnr,8.56
2023-12-24T09:22:00,mnr,8.45
2023-12-24T09:23:00,mnr,8.81
2023-12-24T09:24:00,mnr,8.37
2023-12-24T09:25:00,mnr,8.36
2023-12-24T09:26:00,mnr,8.22
2023-12-24T09:27:00,mnr,8.17
2023-12-24T09:28:00,mnr,8.39
2023-12-24T09:29:00,mnr,8.14
2023-12-24T09:30:00,mnr,8.18
2023-12-24T09:31:00,mnr,9.18
2023-12-24T09:32:00,mnr,11.02
2023-12-24T09:33:00,mnr,10.16
2023-12-24T09:34:00,mnr,10.19
2023-12-24T09:35:00,mnr,10.75
2023-12-24T09:36:00,mnr,10.15
2023-12-24T09:37:00,mnr,10.84
2023-12-24T09:38:00,mnr,10.08
2023-12-24T09:39:00,mnr,10.16
2023-12-24T09:40:00,mnr,10.14
2023-12-24T09:41:00,mnr,9.71
2023-12-24T09:42:00,mnr,9.61
2023-12-24T09:43:00,mnr,9.54
2023-12-24T09:44:00,mnr,10.70
2023-12-24T09:45:00,mnr,9.57
2023-12-24T09:46:00,mnr,9.58
2023-12-24T09:47:00,mnr,10.25
2023-12-24T09:48:00,mnr,10.26
2023-12-24T09:49:00,mnr,10.67
2023-12-24T09:50:00,mnr,10.23
2023-12-24T09:51:00,mnr,10.14
2023-12-24T09:52:00,mnr,10.24
2023-12-24T09:53:00,mnr,10.13
2023-12-24T09:54:00,mnr,10.49
2023-12-24T09:55:00,mnr,10.62
2023-12-24T09:56:00,mnr,10.99
2023-12-24T09:57:00,mnr,10.28
2023-12-24T09:58:00,mnr,10.36
2023-12-24T09:59:00,mnr,10.44
2023-12-24T10:00:00,mnr,10.73
2023-12-24T10:01:00,mnr,10.23
2023-12-24T10:02:00,mnr,10.94
2023-12-24T10:03:00,mnr,10.30
2023-12-24T10:04:00,mnr,10.97
2023-12-24T10:05:00,mnr,10.32
2023-12-24T10:06:00,mnr,10.34
2023-12-24T10:07:00,mnr,10.83
2023-12-24T10:08:00,mnr,9.71
2023-12-24T10:09:00,mnr,9.71
2023-12-24T10:10:00,mnr,9.54
2023-12-24T10:11:00,mnr,9.42
2023-12-24T10:12:00,mnr,9.53
2023-12-24T10:13:00,mnr,9.40
2023-12-24T10:14:00,mnr,9.47
2023-12-24T10:15:00,mnr,9.58
2023-12-24T10:16:00,mnr,9.54
2023-12-24T10:17:00,mnr,10.00
2023-12-24T10:18:00,mnr,10.89
2023-12-24T10:19:00,mnr,10.31
2023-12-24T10:20:00,mnr,9.86
2023-12-24T10:21:00,mnr,9.66
2023-12-24T10:22:00,mnr,9.99
2023-12-24T10:23:00,mnr,10.49
2023-12-24T10:24:00,mnr,10.03
2023-12-24T10:25:00,mnr,9.98
2023-12-24T10:26:00,mnr,9.99
2023-12-24T10:27:00,mnr,10.03
2023-12-24T10:28:00,mnr,9.93
2023-12-24T10:29:00,mnr,9.99
2023-12-24T10:30:00,mnr,10.23
2023-12-24T10:31:00,mnr,9.21
2023-12-24T10:32:00,mnr,9.38
2023-12-24T10:33:00,mnr,9.34
2023-12-24T10:34:00,mnr,10.09
2023-12-24T10:35:00,mnr,9.43
2023-12-24T10:36:00,mnr,9.45
2023-12-24T10:37:00,mnr,9.46
2023-12-24T10:38:00,mnr,9.89
2023-12-24T10:39:00,mnr,9.24
2023-12-24T10:40:00,mnr,9.37
2023-12-24T10:41:00,mnr,9.23
2023-12-24T10:42:00,mnr,9.17
2023-12-24T10:43:00,mnr,9.15
2023-12-24T10:44:00,mnr,9.09
2023-12-24T10:45:00,mnr,9.55
2023-12-24T10:46:00,mnr,9.90
2023-12-24T10:47:00,mnr,9.16
2023-12-24T10:48:00,mnr,9.33
2023-12-24T10:49:00,mnr,9.36
2023-12-24T10:50:00,mnr,9.41
2023-12-24T10:51:00,mnr,9.35
2023-12-24T10:52:00,mnr,9.32
2023-12-24T10:53:00,mnr,9.35
2023-12-24T10:54:00,mnr,9.41
2023-12-24T10:55:00,mnr,10.63
2023-12-24T10:56:00,mnr,11.03
2023-12-24T10:57:00,mnr,9.35
2023-12-24T10:58:00,mnr,9.31
2023-12-24T10:59:00,mnr,9.32
2023-12-24T11:00:00,mnr,9.20
2023-12-24T11:01:00,mnr,9.88
2023-12-24T11:02:00,mnr,9.19
2023-12-24T11:03:00,mnr,9.14
2023-12-24T11:04:00,mnr,9.16
2023-12-24T11:05:00,mnr,9.18
2023-12-24T11:06:00,mnr,9.81
2023-12-24T11:07:00,mnr,9.86
2023-12-24T11:08:00,mnr,9.76
2023-12-24T11:09:00,mnr,9.11
2023-12-24T11:10:00,mnr,9.83
2023-12-24T11:11:00,mnr,9.15
2023-12-24T11:12:00,mnr,9.20
2023-12-24T11:13:00,mnr,9.20
2023-12-24T11:14:00,mnr,9.17
2023-12-24T11:15:00,mnr,9.11
2023-12-24T11:16:00,mnr,9.12
2023-12-24T11:17:00,mnr,9.36
2023-12-24T11:18:00,mnr,9.15
2023-12-24T11:19:00,mnr,9.09
2023-12-24T11:20:00,mnr,9.80
2023-12-24T11:21:00,mnr,9.08
2023-12-24T11:22:00,mnr,8.06
2023-12-24T11:23:00,mnr,8.03
2023-12-24T11:24:00,mnr,8.14
2023-12-24T11:25:00,mnr,8.06
2023-12-24T11:26:00,mnr,7.98
2023-12-24T11:27:00,mnr,8.06
2023-12-24T11:28:00,mnr,8.00
2023-12-24T11:29:00,mnr,7.77
2023-12-24T11:30:00,mnr,7.83
2023-12-24T11:31:00,mnr,9.28
2023-12-24T11:32:00,mnr,8.53
2023-12-24T11:33:00,mnr,8.94
2023-12-24T11:34:00,mnr,8.49
2023-12-24T11:35:00,mnr,9.73
2023-12-24T11:36:00,mnr,8.42
2023-12-24T11:37:00,mnr,8.45
2023-12-24T11:38:00,mnr,9.06
2023-12-24T11:39:00,mnr,8.55
2023-12-24T11:40:00,mnr,8.45
2023-12-24T11:41:00,mnr,8.51
2023-12-24T11:42:00,mnr,9.46
2023-12-24T11:43:00,mnr,8.54
2023-12-24T11:44:00,mnr,8.46
2023-12-24T11:45:00,mnr,8.52
2023-12-24T11:46:00,mnr,8.50
2023-12-24T11:47:00,mnr,8.82
2023-12-24T11:48:00,mnr,9.24
2023-12-24T11:49:00,mnr,8.55
2023-12-24T11:50:00,mnr,8.93
2023-12-24T11:51:00,mnr,8.92
2023-12-24T11:52:00,mnr,8.91
2023-12-24T11:53:00,mnr,8.80
2023-12-24T11:54:00,mnr,8.80
2023-12-24T11:55:00,mnr,8.82
2023-12-24T11:56:00,mnr,10.06
2023-12-24T11:57:00,mnr,9.04
2023-12-24T11:58:00,mnr,8.90
2023-12-24T11:59:00,mnr,8.98
2023-12-24T12:00:00,mnr,9.36
2023-12-24T12:01:00,mnr,9.70
2023-12-24T12:02:00,mnr,10.17
2023-12-24T12:03:00,mnr,10.14
2023-12-24T12:04:00,mnr,10.18
2023-12-24T12:05:00,mnr,11.06
2023-12-24T12:06:00,mnr,9.95
2023-12-24T12:07:00,mnr,10.05
2023-12-24T12:08:00,mnr,10.24
2023-12-24T12:09:00,mnr,10.35
2023-12-24T12:10:00,mnr,10.22
2023-12-24T12:11:00,mnr,10.13
2023-12-24T12:12:00,mnr,10.28
2023-12-24T12:13:00,mnr,10.11
2023-12-24T12:14:00,mnr,10.06
2023-12-24T12:15:00,mnr,10.06
2023-12-24T12:16:00,mnr,10.56
2023-12-24T12:17:00,mnr,10.04
2023-12-24T12:18:00,mnr,9.97
2023-12-24T12:19:00,mnr,10.00
2023-12-24T12:20:00,mnr,9.96
2023-12-24T12:21:00,mnr,9.99
2023-12-24T12:22:00,mnr,10.02
2023-12-24T12:23:00,mnr,9.83
2023-12-24T12:24:00,mnr,9.86
2023-12-24T12:25:00,mnr,9.80
2023-12-24T12:26:00,mnr,9.76
2023-12-24T12:27:00,mnr,9.85
2023-12-24T12:28:00,mnr,9.86
2023-12-24T12:29:00,mnr,9.78
2023-12-24T12:30:00,mnr,9.85
2023-12-24T12:31:00,mnr,9.62
2023-12-24T12:32:00,mnr,9.39
2023-12-24T12:33:00,mnr,9.22
2023-12-24T12:34:00,mnr,9.31
2023-12-24T12:35:00,mnr,9.09
2023-12-24T12:36:00,mnr,9.00
2023-12-24T12:37:00,mnr,9.64
2023-12-24T12:38:00,mnr,9.05
2023-12-24T12:39:00,mnr,9.72
2023-12-24T12:40:00,mnr,9.41
2023-12-24T12:41:00,mnr,9.81
2023-12-24T12:42:00,mnr,9.08
2023-12-24T12:43:00,mnr,9.12
2023-12-24T12:44:00,mnr,9.11
2023-12-24T12:45:00,mnr,9.02
2023-12-24T12:46:00,mnr,8.62
2023-12-24T12:47:00,mnr,8.67
2023-12-24T12:48:00,mnr,8.72
2023-12-24T12:49:00,mnr,9.31
2023-12-24T12:50:00,mnr,8.56
2023-12-24T12:51:00,mnr,8.50
2023-12-24T12:52:00,mnr,8.53
2023-12-24T12:53:00,mnr,8.40
2023-12-24T12:54:00,mnr,8.30
2023-12-24T12:55:00,mnr,8.31
2023-12-24T12:56:00,mnr,8.74
2023-12-24T12:57:00,mnr,8.30
2023-12-24T12:58:00,mnr,8.34
2023-12-24T12:59:00,mnr,8.35
2023-12-24T13:00:00,mnr,8.80
2023-12-24T13:01:00,mnr,8.28
2023-12-24T13:02:00,mnr,8.17
2023-12-24T13:03:00,mnr,8.30
2023-12-24T13:04:00,mnr,9.54
2023-12-24T13:05:00,mnr,7.96
2023-12-24T13:06:00,mnr,8.61
2023-12-24T13:07:00,mnr,7.84
2023-12-24T13:08:00,mnr,9.04
2023-12-24T13:09:00,mnr,7.78
2023-12-24T13:10:00,mnr,7.99
2023-12-24T13:11:00,mnr,8.20
2023-12-24T13:12:00,mnr,8.23
2023-12-24T13:13:00,mnr,7.80
2023-12-24T13:14:00,mnr,7.80
2023-12-24T13:15:00,mnr,8.31
2023-12-24T13:16:00,mnr,7.71
2023-12-24T13:17:00,mnr,8.97
2023-12-24T13:18:00,mnr,7.78
2023-12-24T13:19:00,mnr,7.74
2023-12-24T13:20:00,mnr,8.51
2023-12-24T13:21:00,mnr,8.67
2023-12-24T13:22:00,mnr,8.60
2023-12-24T13:23:00,mnr,8.65
2023-12-24T13:24:00,mnr,8.72
2023-12-24T13:25:00,mnr,9.21
2023-12-24T13:26:00,mnr,9.26
2023-12-24T13:27:00,mnr,8.78
2023-12-24T13:28:00,mnr,8.88
2023-12-24T13:29:00,mnr,8.98
2023-12-24T13:30:00,mnr,8.94
2023-12-24T13:31:00,mnr,10.14
2023-12-24T13:32:00,mnr,8.92
2023-12-24T13:33:00,mnr,9.01
2023-12-24T13:34:00,mnr,8.90
2023-12-24T13:35:00,mnr,9.62
2023-12-24T13:36:00,mnr,8.89
2023-12-24T13:37:00,mnr,8.93
2023-12-24T13:38:00,mnr,8.86
2023-12-24T13:39:00,mnr,9.62
2023-12-24T13:40:00,mnr,9.02
2023-12-24T13:41:00,mnr,9.03
2023-12-24T13:42:00,mnr,8.94
2023-12-24T13:43:00,mnr,9.08